Weather History for KSPF - January, 2014

Change the Weather History Date:

Wednesday, January 29, 2014

  Actual Average (KEFC) Record (KEFC)
Temperature  
Mean Temperature 35 °F -  
Max Temperature 46 °F 35 °F 64 °F (1960)
Min Temperature 24 °F 10 °F -26 °F (1951)
Degree Days  
Heating Degree Days 30    
Moisture  
Dew Point 22 °F    
Average Humidity 53    
Maximum Humidity 100    
Minimum Humidity 34    
Precipitation  
Precipitation 0.54 in - - ()
Sea Level Pressure  
Sea Level Pressure 29.52 in    
Wind  
Wind Speed 14 mph (West)    
Max Wind Speed 24 mph    
Max Gust Speed 34 mph    
Visibility 9 miles    
Events Rain , Snow    
Averages and records for this station are not official NWS values.
T = Trace of Precipitation, MM = Missing Value Source: NWS Daily Summary

Daily Weather History Graph

Daily Weather History Graph

Search for Another Location

Airport or City:

Trip Planner

Search our weather history database for the weather conditions in past years. The results will help you decide how hot, cold, wet, or windy it might be!

Date:

Astronomy

Jan. 29, 2014 Rise Set
Actual Time 8:16 AM CST 6:00 PM CST
Civil Twilight 7:45 AM CST 6:31 PM CST
Nautical Twilight 7:10 AM CST 7:06 PM CST
Astronomical Twilight 6:36 AM CST 7:40 PM CST
Moon 6:55 AM CST (1/29) 5:02 PM CST (1/29)
Length of Visible Light 10h 45m
Length of Day
9h 43m
Waning Crescent, 2% of the Moon is Illuminated
Jan 29
Waning Crescent
Jan 30
New
Feb 6
First Quarter
Feb 14
Full
Feb 22
Last Quarter

Hourly Weather History & Observations

Time (CST) Temp. Windchill Dew Point Humidity Pressure Visibility Wind Dir Wind Speed Gust Speed Precip Events Conditions
12:15 AM 24.8 °F 14.0 °F -0.4 °F 34% 29.85 in 10.0 mi West 11.5 mph - N/A   Clear
7:35 AM 32.0 °F 21.2 °F 10.4 °F 41% 29.73 in 10.0 mi West 16.1 mph - N/A   Clear
7:55 AM 33.8 °F 23.5 °F 12.2 °F 41% 29.73 in 10.0 mi West 16.1 mph 21.9 mph N/A   Clear
8:15 AM 33.8 °F 24.3 °F 14.0 °F 44% 29.72 in 10.0 mi West 13.8 mph - N/A   Clear
8:35 AM 35.6 °F 25.9 °F 14.0 °F 41% 29.72 in 10.0 mi West 16.1 mph 21.9 mph N/A   Clear
8:55 AM 35.6 °F 25.5 °F 14.0 °F 41% 29.71 in 10.0 mi West 17.3 mph - N/A   Clear
9:15 AM 37.4 °F 27.8 °F 15.8 °F 41% 29.71 in 10.0 mi West 17.3 mph 26.5 mph N/A   Clear
9:35 AM 37.4 °F 26.9 °F 15.8 °F 41% 29.70 in 10.0 mi West 20.7 mph 31.1 mph N/A   Clear
9:55 AM 37.4 °F 28.5 °F 17.6 °F 45% 29.70 in 10.0 mi West 15.0 mph 21.9 mph N/A   Clear
10:15 AM 39.2 °F 30.5 °F 17.6 °F 42% 29.69 in 10.0 mi West 16.1 mph 24.2 mph N/A   Clear
10:35 AM 39.2 °F 30.2 °F 19.4 °F 45% 29.69 in 10.0 mi West 17.3 mph 27.6 mph N/A   Clear
10:55 AM 41.0 °F 31.9 °F 19.4 °F 42% 29.68 in 10.0 mi West 19.6 mph 26.5 mph N/A   Clear
11:15 AM 41.0 °F 31.1 °F 19.4 °F 42% 29.68 in 10.0 mi West 23.0 mph 29.9 mph N/A   Clear
11:35 AM 41.0 °F 31.9 °F 19.4 °F 42% 29.66 in 10.0 mi West 19.6 mph 31.1 mph N/A   Clear
11:55 AM 42.8 °F 34.5 °F 19.4 °F 39% 29.65 in 10.0 mi West 18.4 mph 28.8 mph N/A   Clear
12:15 PM 44.6 °F 37.2 °F 19.4 °F 37% 29.63 in 10.0 mi West 17.3 mph 26.5 mph N/A   Clear
12:35 PM 44.6 °F 35.9 °F 23.0 °F 43% 29.62 in 10.0 mi West 23.0 mph 31.1 mph N/A   Clear
12:55 PM 44.6 °F 35.7 °F 23.0 °F 43% 29.61 in 10.0 mi West 24.2 mph 34.5 mph N/A   Clear
1:15 PM 44.6 °F 36.6 °F 23.0 °F 43% 29.59 in 10.0 mi West 19.6 mph 27.6 mph N/A   Clear
1:35 PM 44.6 °F 36.4 °F 23.0 °F 43% 29.58 in 10.0 mi West 20.7 mph 28.8 mph N/A   Clear
1:55 PM 46.4 °F 39.8 °F 23.0 °F 40% 29.56 in 10.0 mi West 16.1 mph 26.5 mph N/A   Clear
2:15 PM 46.4 °F 39.0 °F 23.0 °F 40% 29.54 in 10.0 mi West 19.6 mph 27.6 mph N/A   Clear
2:35 PM 46.4 °F 40.7 °F 23.0 °F 40% 29.53 in 10.0 mi WNW 12.7 mph 19.6 mph N/A   Clear
2:55 PM 46.4 °F 40.7 °F 23.0 °F 40% 29.51 in 10.0 mi WNW 12.7 mph 16.1 mph N/A   Clear
3:15 PM 46.4 °F 40.4 °F 21.2 °F 37% 29.50 in 10.0 mi NW 13.8 mph 20.7 mph N/A   Clear
3:35 PM 46.4 °F 40.7 °F 21.2 °F 37% 29.49 in 10.0 mi West 12.7 mph 17.3 mph N/A   Clear
3:55 PM 46.4 °F 41.9 °F 21.2 °F 37% 29.48 in 10.0 mi SW 9.2 mph - N/A   Clear
4:15 PM 46.4 °F 43.5 °F 19.4 °F 34% 29.47 in 10.0 mi SW 5.8 mph - N/A   Clear
4:35 PM 46.4 °F 44.3 °F 19.4 °F 34% 29.46 in 10.0 mi SW 4.6 mph - N/A   Clear
4:55 PM 44.6 °F 42.2 °F 19.4 °F 37% 29.45 in 10.0 mi SE 4.6 mph - N/A   Clear
5:15 PM 44.6 °F 40.2 °F 21.2 °F 39% 29.44 in 10.0 mi ESE 8.1 mph - N/A   Clear
5:35 PM 41.0 °F 39.0 °F 23.0 °F 49% 29.43 in 10.0 mi SE 3.5 mph - N/A   Partly Cloudy
5:55 PM 41.0 °F 37.1 °F 23.0 °F 49% 29.42 in 10.0 mi SE 5.8 mph - N/A   Mostly Cloudy
6:15 PM 39.2 °F - 23.0 °F 52% 29.41 in 10.0 mi Calm Calm - N/A   Overcast
6:35 PM 39.2 °F 35.0 °F 23.0 °F 52% 29.40 in 10.0 mi NNE 5.8 mph - N/A   Overcast
6:55 PM 39.2 °F 35.9 °F 23.0 °F 52% 29.39 in 10.0 mi NE 4.6 mph - N/A   Overcast
7:15 PM 39.2 °F 35.9 °F 23.0 °F 52% 29.37 in 10.0 mi East 4.6 mph - N/A   Overcast
7:35 PM 39.2 °F - 23.0 °F 52% 29.37 in 10.0 mi Calm Calm - N/A   Overcast
7:55 PM 37.4 °F 32.8 °F 24.8 °F 60% 29.36 in 10.0 mi West 5.8 mph - N/A   Mostly Cloudy
8:15 PM 39.2 °F 31.6 °F 30.2 °F 70% 29.37 in 9.0 mi WNW 12.7 mph 18.4 mph N/A Rain Light Rain
8:35 PM 39.2 °F 33.0 °F 28.4 °F 65% 29.36 in 10.0 mi WNW 9.2 mph - N/A   Mostly Cloudy
8:55 PM 35.6 °F 27.5 °F 32.0 °F 87% 29.37 in 7.0 mi WNW 11.5 mph - 0.01 in Rain Light Rain
9:15 PM 33.8 °F 26.4 °F 32.0 °F 93% 29.37 in 5.0 mi West 9.2 mph - 0.02 in Rain Rain
9:35 PM 32.0 °F 25.6 °F 32.0 °F 100% 29.37 in 3.0 mi West 6.9 mph - 0.11 in Snow Light Snow
9:55 PM 32.0 °F 28.7 °F 32.0 °F 100% 29.36 in 4.0 mi West 3.5 mph - 0.23 in Snow Light Snow
10:15 PM 32.0 °F 27.5 °F 32.0 °F 100% 29.36 in 2.5 mi NW 4.6 mph - 0.10 in Snow Light Snow
10:35 PM 32.0 °F 24.8 °F 32.0 °F 100% 29.36 in 5.0 mi WSW 8.1 mph - 0.30 in Snow Light Snow
10:55 PM 32.0 °F 26.4 °F 32.0 °F 100% 29.35 in 10.0 mi West 5.8 mph - 0.30 in   Mostly Cloudy
11:15 PM 37.4 °F 27.8 °F 32.0 °F 81% 29.35 in 10.0 mi West 17.3 mph 27.6 mph N/A   Overcast
11:35 PM 37.4 °F 27.5 °F 32.0 °F 81% 29.35 in 10.0 mi West 18.4 mph 27.6 mph N/A   Overcast
11:55 PM 37.4 °F 26.4 °F 32.0 °F 81% 29.36 in 10.0 mi West 23.0 mph 32.2 mph N/A   Overcast